Home   Weather   Langenthal   Past weeks

Flag for Switzerland Past Weather in Langenthal, Bern, Switzerland — Yesterday and Last 2 Weeks

Now
25 °F

Cold.


Feels Like: 17 °F
Forecast: 6 / 24 °F
Wind: 7 mph from East

Location: Wynau

Current Time: Jan 19, 2017 at 12:14:10 pm

Latest Report: Jan 19, 2017 at 11:00 am


Visibility: N/A

Pressure: 30.53 "Hg

Humidity: 81%

Dew Point: 19 °F

Location of LangenthalLocation

Past Weather in Langenthal — Graph

°F

Langenthal Temperature Yesterday

Maximum temperature yesterday: 26 °F (at 6:00 pm)
Minimum temperature yesterday: 24 °F (at 7:00 am)
Average temperature yesterday: 25 °F

High & Low Weather Summary for the Past Weeks

 TemperatureHumidityPressure
High42 °F (Jan 13, 1:00 am)100% (Jan 11, 8:00 am)30.73 "Hg (Jan 11, 8:00 am)
Low11 °F (Jan 7, 3:00 am)61% (Jan 5, 7:00 pm)29.57 "Hg (Jan 13, 1:00 am)
Average28 °F85%30.27 "Hg
* Reported Jan 4 10:00 am — Jan 19 10:00 am, Langenthal, Weather by CustomWeather, © 2017

Note: Actual official high and low records may vary slightly from our data, if they occured in-between our weather recording intervals... More about our weather records

Advertising

Langenthal Weather History for the Previous 24 Hours

Scroll right to see more
 ConditionsComfort  
Time TempWeatherWind HumidityBarometerVisibility
10:00 am
Thu, Jan 19
24 °FCold.7 mph80%30.53 "HgN/A
9:00 am24 °FCold.9 mph81%30.52 "HgN/A
8:00 am24 °FCold.8 mph81%30.50 "HgN/A
7:00 am24 °FCold.10 mph79%30.49 "HgN/A
6:00 am25 °FCold.10 mph79%30.49 "HgN/A
5:00 am25 °FCold.9 mph80%30.49 "HgN/A
4:00 am25 °FCold.10 mph79%30.49 "HgN/A
3:00 am25 °FChilly.10 mph77%30.48 "HgN/A
2:00 am25 °FChilly.12 mph78%30.47 "HgN/A
1:00 am25 °FChilly.15 mph76%30.47 "HgN/A
12:00 am25 °FChilly.15 mph75%30.47 "HgN/A
11:00 pm
Wed, Jan 18
26 °FChilly.14 mph76%30.47 "HgN/A
10:00 pm26 °FChilly.18 mph71%30.47 "HgN/A
9:00 pm26 °FChilly.18 mph71%30.47 "HgN/A
8:00 pm26 °FChilly.14 mph75%30.48 "HgN/A
7:00 pm26 °FChilly.20 mph71%30.47 "HgN/A
6:00 pm26 °FChilly.14 mph73%30.47 "HgN/A
5:00 pm26 °FChilly.15 mph72%30.47 "HgN/A
4:00 pm26 °FChilly.20 mph70%30.47 "HgN/A
3:00 pm26 °FChilly.16 mph71%30.46 "HgN/A
2:00 pm26 °FChilly.17 mph73%30.46 "HgN/A
1:00 pm25 °FChilly.15 mph73%30.47 "HgN/A
12:00 pm25 °FChilly.15 mph78%30.48 "HgN/A
Weather by CustomWeather, © 2017

See weather overviewHow to use our weather pages